Regional Weather Roundup
Issued by NWS New Orleans/Baton Rouge, LA

Home | Current Version | Previous Version | Text Only | Print | Product List | Glossary On
Versions: 1 2 3 4 5 6 7 8 9 10 11 12 13 14 15 16 17 18 19 20 21 22 23 24 25 26 27 28 29 30 31 32 33 34 35 36 37 38 39 40 41 42 43 44 45 46 47 48 49 50
504
ASUS44 KLIX 280307
RWRLIX
NEW ORLEANS REGIONAL WEATHER ROUNDUP
NATIONAL WEATHER SERVICE NEW ORLEANS LA
1000 PM CDT FRI MAR 27 2015

NOTE: "FAIR" INDICATES FEW OR NO CLOUDS BELOW 12,000 FEET WITH NO
      SIGNIFICANT WEATHER AND/OR OBSTRUCTIONS TO VISIBILITY.
      SKY/WX - SKY CONDITION AND SIGNIFICANT WEATHER.
      TMP - AIR TEMPERATURE.     DP    - DEWPOINT TEMPERATURE.
      RH  - RELATIVE HUMIDITY.   PRES  - PRESSURE.
      HI  - HEAT INDEX.          WCI   - WIND CHILL INDEX.

*  THESE STATIONS ARE NOT NWS OR FAA STATIONS AND ARE NOT UNDER
   NWS QUALITY CONTROL.

LAZ038-040-048-061>063-065>067-069-280400-
SOUTHEAST LOUISIANA

CITY           SKY/WX    TMP DP  RH WIND       PRES   REMARKS
N.O. AUDUBON     N/A     59 N/A N/A MISG        N/A
N.O. INTL ARPT PTCLDY    61  43  51 CALM      30.10R
N.O. LAKEFRONT CLEAR     65  42  43 NE18      30.11R
SLIDELL        CLEAR     53  41  63 N6        30.11R
BATON ROUGE    CLEAR     59  42  53 NE9       30.12R
BOOTHVILLE     CLEAR     58  46  64 NW6       30.10R
BELLE CHASSE   PTCLDY    50  46  86 CALM      30.09R
BOGALUSA*        N/A     55  37  52 N7        30.14R
GALLIANO*      CLEAR     61  54  76 MISG      30.12R
NEW ROADS*       N/A     58  42  55 N7        30.13R
GONZALES*        N/A     54  48  79 CALM      30.10R
HAMMOND*       CLEAR     57  37  47 N3        30.14R
HOUMA*         CLEAR     57  54  87 SW6       30.11R
PORT FOURCHON* PTCLDY    64  54  68 W9G16     30.14R

$$

MSZ070-080>082-280400-
SOUTHERN MISSISSIPPI

CITY           SKY/WX    TMP DP  RH WIND       PRES   REMARKS
MCCOMB         CLEAR     53  37  54 N7        30.13R
GULFPORT       CLEAR     57  35  43 N7        30.11R
BILOXI         CLEAR     57  37  46 N9        30.11R
PASCAGOULA     CLEAR     53  36  52 N7        30.11R

$$

COASTAL OBSERVATIONS
LAKE AND NEARSHORE STATIONS

STATION/POSITION TIME  TEMP    WIND        PRES    WAVE
                       AIR SEA DIR/SP/G            HT/PER
                 (UTC) (F)     (DEG/KT/KT) (MB)    (FT/S)
PASCAGOULA       0200   59     360/  9/ 12 1017.8
WAVELAND YACHT   0206   61 67   30/ 14/ 16 1018.3
GRAND ISLE       0200   66 69  320/  9/ 12 1018.3
SOUTHWEST PASS   0200   62 52  320/ 18/ 20 1018.8
NEW CANAL        0206   67     340/  1/  4 1018.7
SHELL BEACH      0200   66 69  330/ 15/ 17 1018.1

OFFSHORE STATIONS

STATION/POSITION TIME  TEMP    WIND        PRES    WAVE
                       AIR SEA DIR/SP/G            HT/PER
                 (UTC) (F)     (DEG/KT/KT) (MB)    (FT/S)
64 S DAUPHIN ISL 0250   67 71  320/ 17/ 21 1018.5    4/ 8

$$




USA.gov is the U.S. government's official web portal to all federal, state and local government web resources and services.